Flag for U.S.A. Weather past 2 weeks in Asheville, North Carolina, U.S.A.

Now
75 °F

Sunny.


Feels Like: 77 °F
Forecast: 61 / 82 °F
Wind: 9 mph from South

Location: Asheville Regional Airport

Current Time: May 27, 2015 at 2:18:39 PM

Latest Report: May 27, 2015 at 1:54 PM


Visibility: 10 mi

Pressure: 30.21 "Hg

Humidity: 64%

Dew point: 62 °F

Location of AshevilleLocation

Historic Weather in Asheville — Graph

°F

Asheville temperature yesterday

Maximum temperature yesterday: 78 °F (at 3:54 PM)
Minimum temperature yesterday: 64 °F (at 10:54 PM)
Average temperature yesterday: 69 °F

Past Weeks' High & Low Weather Summary

 TemperatureHumidityPressure
High84 °F (May 20, 2:54 PM)94% (May 26, 2:54 AM)30.44 "Hg (May 26, 2:54 AM)
Low44 °F (May 23, 5:54 AM)17% (May 13, 1:54 PM)29.81 "Hg (May 21, 5:54 AM)
Average67 °F64%30.18 "Hg
* Reported May 12 12:54 PM — May 27 12:54 PM, Asheville, Weather by CustomWeather, © 2015

Note: Actual official high and low records may vary slightly from our data, if they occured in-between our weather recording intervals... More about our weather records

Advertising

Asheville weather history for previous 24 hours

 ConditionsComfort  
Time TempWeatherWind HumidityBarometerVisibility
12:54 PM
Wed, May 27
74 °FSunny.9 mph67%30.22 "Hg10 mi
11:54 AM74 °FSunny.6 mph62%30.21 "Hg10 mi
10:54 AM70 °FPassing clouds.3 mph71%30.23 "Hg10 mi
9:01 AM62 °FLow clouds.3 mph93%30.30 "Hg10 mi
7:54 AM61 °FFog.No wind93%30.24 "Hg1 mi
6:54 AM60 °FFog.No wind93%30.21 "Hg1 mi
5:54 AM60 °FLow clouds.No wind93%30.19 "Hg10 mi
4:54 AM61 °FLow clouds.No wind93%30.16 "Hg10 mi
3:54 AM61 °FClear.3 mph93%30.16 "Hg10 mi
2:54 AM62 °FClear.3 mph93%30.17 "Hg10 mi
1:54 AM63 °FPassing clouds.No wind93%30.18 "Hg10 mi
12:54 AM64 °FOvercast.6 mph90%30.20 "Hg10 mi
11:54 PM
Tue, May 26
65 °FLight rain. Overcast.No wind91%30.21 "Hg10 mi
10:54 PM64 °FLight rain. Passing clouds.3 mph94%30.21 "Hg10 mi
9:54 PM65 °FRain. Overcast.6 mph94%30.20 "Hg10 mi
8:56 PM66 °FStrong thunderstorms. Mostly cloudy.12 mph87%30.24 "Hg8 mi
7:54 PM70 °FPassing clouds.6 mph87%30.16 "Hg10 mi
6:54 PM74 °FMostly cloudy.12 mph69%30.16 "Hg10 mi
5:54 PM76 °FScattered clouds.12 mph64%30.17 "Hg10 mi
4:54 PM76 °FBroken clouds.13 mph67%30.16 "Hg10 mi
3:54 PM78 °FBroken clouds.12 mph60%30.17 "Hg10 mi
2:54 PM76 °FBroken clouds.10 mph64%30.20 "Hg10 mi
Weather by CustomWeather, © 2015

See weather overviewHow to use our weather pages